Weather in Kitchener

Canada     43°26′21″N   80°28′20″W
temp.,
°C
wind,
m/s
gust,
m/s
humid.,
%
clouds,
%
prec.,
mm/h
press.,
hPa
HPBL,
m
4 july, mon
mon423:00+14nnw22820 0.0 102111
02:00+13wnw11815 0.0 102111
05:00+13wnw117871 0.0 102211
08:00+18ssw116935 0.0 1022109
11:00+23ssw34565 0.0 1021698
14:00+25wsw4660100 0.4 10201427
17:00+27wsw475682 0.4 10181624
20:00+22sw368194 2.3 101894
5 july, tue
tue523:00+18ssw3690100 0.6 1017102
02:00+18ssw31087100 0.9 1015184
05:00+18sw31086100 0.0 1013204
08:00+16s5996100 8.6 1012223
11:00+18ssw61397100 2.6 1010619
14:00+22w6129496 2.6 1009735
17:00+25wnw8128351 0.4 10091033
20:00+21nw511880 0.4 1010573
6 july, wed
wed623:00+17nnw598956 0.0 1013440
02:00+15nne489224 0.0 1014288
05:00+12ne310912 0.0 1016287
08:00+16ene5118114 0.0 1018407
11:00+20ene56620 0.0 1019907
14:00+23ene4453100 0.0 10181316
17:00+24ne33495 0.0 10171453
20:00+20ene3473100 0.0 101792
7 july, thu
thu723:00+16ne3673100 0.0 1018102
02:00+14ne3556100 0.0 101890
05:00+15ene3453100 0.0 101889
08:00+16ene3467100 0.0 1018113
11:00+22e3453100 0.0 1017659
14:00+24ene334796 0.0 10171161
17:00+25se22455 0.0 10161325
20:00+21se35672 0.0 101683
8 july, fri
fri823:00+16ese22694 0.0 101615
02:00+15e22725 0.0 101719
05:00+14ene127299 0.0 101610
08:00+18ene236932 0.0 1016109
11:00+24e235973 0.0 1016614
14:00+26ne3251100 0.0 10151198
17:00+27nne335010 0.0 10141496
20:00+23ne36755 0.0 1014174